TimeEST,TemperatureF,Dew PointF,Humidity,Sea Level PressureIn,VisibilityMPH,Wind Direction,Wind SpeedMPH,Gust SpeedMPH,PrecipitationIn,Events,Conditions,WindDirDegrees,DateUTC
12:53 AM,42.1,28.0,58,30.29,10.0,SE,3.5,-,0.00,,Overcast,140,2013-11-21 05:53:00
1:53 AM,42.1,28.9,60,30.30,10.0,South,4.6,-,N/A,,Overcast,190,2013-11-21 06:53:00
2:53 AM,42.1,28.0,58,30.30,10.0,SE,4.6,-,N/A,,Overcast,130,2013-11-21 07:53:00
3:53 AM,39.9,33.1,77,30.30,10.0,South,4.6,-,0.00,Rain,Light Rain,190,2013-11-21 08:53:00
4:53 AM,41.0,33.1,73,30.30,10.0,SSE,5.8,-,0.00,,Overcast,160,2013-11-21 09:53:00
5:53 AM,42.1,32.0,67,30.29,10.0,SE,6.9,-,N/A,,Overcast,140,2013-11-21 10:53:00
6:53 AM,43.0,30.9,62,30.28,10.0,SE,10.4,19.6,N/A,,Overcast,140,2013-11-21 11:53:00
7:53 AM,43.0,32.0,65,30.28,10.0,SE,11.5,-,N/A,,Overcast,140,2013-11-21 12:53:00
8:53 AM,43.0,34.0,71,30.29,10.0,SSE,11.5,-,N/A,,Overcast,150,2013-11-21 13:53:00
9:53 AM,44.1,36.0,73,30.30,10.0,South,10.4,-,N/A,,Overcast,170,2013-11-21 14:53:00
10:53 AM,44.1,39.0,82,30.31,9.0,South,12.7,-,0.00,Rain,Light Rain,180,2013-11-21 15:53:00
11:53 AM,44.1,41.0,89,30.29,8.0,South,9.2,-,0.00,,Overcast,170,2013-11-21 16:53:00
12:53 PM,45.0,42.1,90,30.27,7.0,SSE,9.2,-,N/A,,Overcast,160,2013-11-21 17:53:00
1:53 PM,46.0,42.1,86,30.25,8.0,South,8.1,-,0.00,,Overcast,180,2013-11-21 18:53:00
2:15 PM,46.4,42.8,87,30.22,7.0,SSE,8.1,-,N/A,,Overcast,160,2013-11-21 19:15:00
2:53 PM,46.0,42.1,86,30.23,7.0,South,9.2,-,N/A,,Overcast,170,2013-11-21 19:53:00
3:53 PM,45.0,42.1,90,30.25,7.0,SSE,5.8,-,N/A,,Overcast,150,2013-11-21 20:53:00
4:00 PM,44.6,42.8,93,30.23,7.0,SSE,6.9,-,N/A,Rain,Light Rain,150,2013-11-21 21:00:00
4:42 PM,44.6,42.8,93,30.24,3.0,SSE,6.9,-,0.00,Rain,Rain,150,2013-11-21 21:42:00
4:53 PM,44.1,42.1,93,30.25,2.5,SE,4.6,-,0.01,Rain,Rain,140,2013-11-21 21:53:00
5:02 PM,44.6,42.8,93,30.24,3.0,SSE,4.6,-,0.01,Rain,Light Rain,160,2013-11-21 22:02:00
5:14 PM,44.6,42.8,93,30.24,3.0,SSE,4.6,-,0.02,Rain,Light Rain,150,2013-11-21 22:14:00
5:27 PM,44.6,42.8,93,30.25,3.0,SE,4.6,-,0.04,Rain,Light Rain,140,2013-11-21 22:27:00
5:53 PM,43.0,42.1,97,30.25,3.0,SSE,5.8,-,0.05,Rain,Light Rain,150,2013-11-21 22:53:00
6:26 PM,42.8,42.8,100,30.23,3.0,SSE,8.1,-,0.03,Rain,Light Rain,150,2013-11-21 23:26:00
6:53 PM,43.0,42.1,97,30.25,3.0,SSE,8.1,-,0.04,Rain,Light Rain,160,2013-11-21 23:53:00
7:53 PM,43.0,42.1,97,30.24,3.0,South,6.9,-,0.03,Rain,Light Rain,170,2013-11-22 00:53:00
8:03 PM,42.8,42.8,100,30.22,3.0,SSE,9.2,-,0.01,Rain,Light Rain,160,2013-11-22 01:03:00
8:32 PM,42.8,42.8,100,30.23,3.0,South,8.1,-,0.04,Rain,Light Rain,180,2013-11-22 01:32:00
8:53 PM,44.1,43.0,96,30.23,3.0,South,8.1,-,0.06,Rain,Light Rain,170,2013-11-22 01:53:00
9:26 PM,44.6,42.8,93,30.21,3.0,SSE,6.9,-,0.03,Rain,Light Rain,160,2013-11-22 02:26:00
9:53 PM,44.1,43.0,96,30.22,3.0,SSE,6.9,-,0.06,Rain,Light Rain,160,2013-11-22 02:53:00
10:00 PM,44.6,42.8,93,30.20,3.0,SSE,8.1,-,0.00,Rain,Light Rain,160,2013-11-22 03:00:00
10:53 PM,44.1,43.0,96,30.20,3.0,SSE,3.5,-,0.04,Rain,Light Rain,150,2013-11-22 03:53:00
11:51 PM,44.6,42.8,93,30.18,3.0,South,4.6,-,0.02,Rain,Light Rain,170,2013-11-22 04:51:00
11:53 PM,44.1,43.0,96,30.19,3.0,South,4.6,-,0.02,Rain,Light Rain,170,2013-11-22 04:53:00